NOAA 19 (33591 NORAD) Tracking and Keplerian Element Data

This shows tracking and keplerian element data for the satellite.

Feedback or suggestion? Click here.




ElementValue
Catalog33591
NameNOAA 19
Epoch Orbit54962
Epoch Day282.89474267
Epoch Year2019
RAAN276.7998
Inclination99.1883
Eccentricity0.0014861
Argument of Perigee62.9363
Mean Anonmoly297.3322
Mean Motion14.1237914
Decay Rate1E-07
L11 33591U 09005A 19282.89474267 .00000010 00000-0 30916-4 0 9998
L22 33591 99.1883 276.7998 0014861 62.9363 297.3322 14.12379140549624

Live tracking and technical data element details for NOAA 19 (NORAD 33591). NOAA 19 can be tracked NOW for your location showing map with azimuth and elevation plus other details from your city location.

Track the satellite on the map from your city or location and see movement details for azimuth, elevation, latitude, longitude, range, height, and movement on the map or in text.







IsCatalogInMostPopularTable: catalog: 33591, numindb: 758
Update: records affected: 1



GetName: 33591 NOAA 19

Hit Count: updated at: Mon, 14 Oct 2019 02:01:10 GMT